Location: Geçitköy
(36.7327°N, 29.8010°E)
Time: 20:06:33
(UTC+00:00)

NOSS 3-2 (C) - Pass Details

Date: 12 January 2026
Orbit: 672 x 1536 km, 63.4° (Epoch: 2 January)

Event Time Altitude Azimuth Distance (km) Brightness Sun altitude
Rises 15:42:09 0° 329° (NNW) 3,977 6.8 -7.6°
Reaches altitude 10° 15:44:41 10° 332° (NNW) 3,128 6.2 -8.1°
Maximum altitude 15:52:26 73° 57° (ENE) 1,420 4.2 -9.5°
Drops below altitude 10° 16:01:32 10° 142° (SE) 3,642 6.3 -11.2°
Sets 16:04:41 0° 144° (SE) 4,661 6.8 -11.8°
